Weather History for Newport, RI

Change the Weather History Date:

Wednesday, August 13, 2014

  Actual Average Record
Temperature  
Mean Temperature 70 °F -  
Max Temperature 73 °F 78 °F 86 °F (2002)
Min Temperature 68 °F 63 °F 50 °F (2006)
Cooling Degree Days 6    
Growing Degree Days 20 (Base 50)    
Moisture  
Dew Point 67 °F    
Average Humidity 89    
Maximum Humidity 94    
Minimum Humidity 81    
Precipitation  
Precipitation 0.45 in - - ()
Sea Level Pressure  
Sea Level Pressure 29.76 in    
Wind  
Wind Speed 12 mph (SSE)    
Max Wind Speed 17 mph    
Max Gust Speed 28 mph    
Visibility 6 miles    
Events Rain    
Averages and records for this station are not official NWS values.
T = Trace of Precipitation, MM = Missing Value Source: NWS Daily Summary

Daily Weather History Graph

Daily Weather History Graph

Search for Another Location

Airport:

Trip Planner

Search our weather history database for the weather conditions in past years. The results will help you decide how hot, cold, wet, or windy it might be!

Date:

Astronomy

Aug. 13, 2014 Rise Set
Actual Time 5:51 AM EDT 7:47 PM EDT
Civil Twilight 5:21 AM EDT 8:17 PM EDT
Nautical Twilight 4:45 AM EDT 8:53 PM EDT
Astronomical Twilight 4:05 AM EDT 9:33 PM EDT
Moon 9:27 PM EDT (8/13) 9:19 AM EDT (8/13)
Length of Visible Light 14h 55m
Length of Day
13h 55m
Waning Gibbous, 88% of the Moon is Illuminated
Aug 13
Waning Gibbous
Aug 17
Last Quarter
Aug 25
New
Sep 2
First Quarter
Sep 8
Full

Hourly Weather History & Observations

Time (EDT) Temp. Dew Point Humidity Pressure Visibility Wind Dir Wind Speed Gust Speed Precip Events Conditions
12:53 AM 71.1 °F 64.9 °F 81% 29.98 in 10.0 mi SE 13.8 mph 23.0 mph N/A   Mostly Cloudy
1:53 AM 70.0 °F 66.0 °F 87% 29.97 in 10.0 mi SE 10.4 mph 19.6 mph 0.00 in Rain Light Rain
2:53 AM 70.0 °F 66.0 °F 87% 29.94 in 10.0 mi SE 9.2 mph 19.6 mph 0.00 in Rain Light Rain
3:36 AM 69.1 °F 66.0 °F 90% 29.95 in 6.0 mi SE 11.5 mph 20.7 mph 0.05 in Rain Light Rain
3:53 AM 69.1 °F 66.0 °F 90% 29.93 in 6.0 mi SE 10.4 mph - 0.08 in Rain Light Rain
4:08 AM 69.1 °F 66.0 °F 90% 29.92 in 3.0 mi SE 12.7 mph - 0.07 in Rain Heavy Rain
4:10 AM 69.1 °F 66.0 °F 90% 29.92 in 2.5 mi SE 11.5 mph - 0.07 in Rain Heavy Rain
4:24 AM 69.1 °F 66.0 °F 90% 29.90 in 3.0 mi ESE 11.5 mph - 0.15 in Rain Light Rain
4:53 AM 70.0 °F 66.0 °F 87% 29.89 in 6.0 mi SE 16.1 mph 24.2 mph 0.17 in Rain Rain
5:53 AM 69.1 °F 64.9 °F 87% 29.88 in 7.0 mi ESE 12.7 mph 21.9 mph 0.04 in Rain Light Rain
6:14 AM 69.1 °F 64.9 °F 87% 29.88 in 10.0 mi ESE 13.8 mph 21.9 mph 0.02 in Rain Light Rain
6:53 AM 70.0 °F 64.9 °F 84% 29.85 in 10.0 mi ESE 12.7 mph 25.3 mph 0.03 in   Mostly Cloudy
7:19 AM 70.0 °F 64.9 °F 84% 29.84 in 10.0 mi ESE 13.8 mph 26.5 mph N/A   Overcast
9:01 AM 70.0 °F 64.9 °F 84% 29.82 in 10.0 mi ESE 15.0 mph 26.5 mph N/A   Overcast
11:46 AM 70.0 °F 66.0 °F 87% 29.79 in 9.0 mi SE 17.3 mph 26.5 mph 0.00 in   Overcast
11:53 AM 70.0 °F 66.0 °F 87% 29.78 in 6.0 mi ESE 11.5 mph 23.0 mph 0.01 in   Overcast
12:00 PM 69.1 °F 66.0 °F 90% 29.78 in 1.8 mi SE 12.7 mph 21.9 mph 0.06 in Rain Heavy Rain
12:11 PM 69.1 °F 66.0 °F 90% 29.78 in 2.0 mi SE 17.3 mph 27.6 mph 0.10 in Rain Rain
12:20 PM 69.1 °F 66.0 °F 90% 29.77 in 4.0 mi ESE 13.8 mph 26.5 mph 0.11 in Rain Light Rain
12:53 PM 69.1 °F 66.9 °F 93% 29.75 in 6.0 mi ESE 10.4 mph 24.2 mph 0.11 in Rain Light Rain
1:53 PM 69.1 °F 66.0 °F 90% 29.72 in 5.0 mi ESE 12.7 mph 24.2 mph 0.00 in Rain Light Rain
2:24 PM 69.1 °F 66.0 °F 90% 29.71 in 7.0 mi ESE 15.0 mph 20.7 mph 0.00 in   Overcast
2:53 PM 68.0 °F 66.0 °F 93% 29.69 in 5.0 mi SE 15.0 mph 20.7 mph 0.00 in Rain Light Rain
3:53 PM 69.1 °F 66.9 °F 93% 29.66 in 5.0 mi SSE 12.7 mph 21.9 mph 0.00 in   Overcast
4:53 PM 70.0 °F 68.0 °F 93% 29.64 in 4.0 mi SE 11.5 mph 20.7 mph 0.00 in   Overcast
5:07 PM 70.0 °F 68.0 °F 93% 29.64 in 4.0 mi SE 12.7 mph - N/A   Overcast
5:53 PM 71.1 °F 69.1 °F 93% 29.63 in 2.0 mi South 12.7 mph 18.4 mph 0.01 in Rain Light Rain
6:09 PM 73.0 °F 71.1 °F 93% 29.62 in 3.0 mi SSE 8.1 mph - 0.00 in   Overcast
6:39 PM 72.0 °F 70.0 °F 93% 29.62 in 6.0 mi South 5.8 mph - 0.00 in   Mostly Cloudy
6:51 PM 71.6 °F 69.8 °F 94% 29.63 in 7.0 mi SSW 6.9 mph - 0.00 in   Scattered Clouds
6:53 PM 72.0 °F 69.1 °F 91% 29.62 in 7.0 mi SSW 5.8 mph - 0.00 in   Scattered Clouds
7:01 PM 72.0 °F 69.1 °F 91% 29.63 in 6.0 mi SSW 5.8 mph - N/A   Mostly Cloudy
7:25 PM 71.1 °F 68.0 °F 90% 29.63 in 7.0 mi South 5.8 mph - N/A   Mostly Cloudy
7:33 PM 71.1 °F 68.0 °F 90% 29.63 in 7.0 mi South 5.8 mph - N/A   Mostly Cloudy
7:41 PM 71.1 °F 69.1 °F 93% 29.63 in 7.0 mi South 3.5 mph - N/A   Overcast
7:53 PM 71.1 °F 68.0 °F 90% 29.62 in 7.0 mi SSW 3.5 mph - N/A   Overcast
8:11 PM 70.0 °F 68.0 °F 93% 29.64 in 6.0 mi Variable 3.5 mph - N/A   Mostly Cloudy
8:53 PM 70.0 °F 66.0 °F 87% 29.65 in 10.0 mi West 9.2 mph - N/A   Mostly Cloudy
9:03 PM 70.0 °F 66.0 °F 87% 29.66 in 10.0 mi West 8.1 mph - N/A   Scattered Clouds
9:53 PM 69.1 °F 64.0 °F 84% 29.67 in 10.0 mi WNW 9.2 mph - N/A   Partly Cloudy